Weather History for KBOI - April, 2013

Change the Weather History Date:

Friday, April 19, 2013

  Actual Average Record
Temperature  
Mean Temperature 48 °F 51 °F  
Max Temperature 53 °F 63 °F 87 °F (1910)
Min Temperature 42 °F 40 °F 22 °F (1966)
Degree Days  
Heating Degree Days 17 14  
Month to date heating degree days 309 295  
Since 1 July heating degree days 5016 5090  
Cooling Degree Days 0 0  
Month to date cooling degree days 0 0  
Year to date cooling degree days 0 0  
Moisture  
Dew Point 39 °F    
Average Humidity 64    
Maximum Humidity 86    
Minimum Humidity 42    
Precipitation  
Precipitation 0.32 in 0.05 in 0.62 in (1967)
Month to date precipitation 0.94 0.77  
Year to date precipitation 3.14 4.39  
Snow  
Snow 0.00 in 0.00 in 6.00 in (1967)
Month to date snowfall 0.0 0.3  
Since 1 July snowfall 16.0 19.2  
Snow Depth 0.00 in    
Sea Level Pressure  
Sea Level Pressure 30.11 in    
Wind  
Wind Speed 5 mph (SSW)    
Max Wind Speed 16 mph    
Max Gust Speed 23 mph    
Visibility 8 miles    
Events Rain    
T = Trace of Precipitation, MM = Missing Value Source: NWS Daily Summary

Daily Weather History Graph

Daily Weather History Graph

Search for Another Location

Airport or City:

Trip Planner

Search our weather history database for the weather conditions in past years. The results will help you decide how hot, cold, wet, or windy it might be!

Date:

Astronomy

Apr. 19, 2013 Rise Set
Actual Time 6:55 AM MDT 8:33 PM MDT
Civil Twilight 6:25 AM MDT 9:03 PM MDT
Nautical Twilight 5:48 AM MDT 9:40 PM MDT
Astronomical Twilight 5:09 AM MDT 10:20 PM MDT
Moon 2:11 PM MDT (4/19) 3:24 AM MDT (4/19)
Length of Visible Light 14h 38m
Length of Day
13h 38m
Waxing Gibbous, 62% of the Moon is Illuminated
Apr 19
Waxing Gibbous
Apr 25
Full
May 2
Last Quarter
May 9
New
May 17
First Quarter

Hourly Weather History & Observations

Time (MDT) Temp. Windchill Dew Point Humidity Pressure Visibility Wind Dir Wind Speed Gust Speed Precip Events Conditions
12:53 AM 46.0 °F 43.9 °F 26.1 °F 46% 30.23 in 10.0 mi SE 4.6 mph - N/A   Overcast
1:53 AM 46.9 °F - 25.0 °F 42% 30.22 in 10.0 mi Calm Calm - N/A   Scattered Clouds
2:53 AM 44.1 °F 41.5 °F 27.0 °F 51% 30.20 in 10.0 mi ESE 4.6 mph - N/A   Overcast
3:53 AM 43.0 °F 40.3 °F 27.0 °F 53% 30.19 in 10.0 mi ESE 4.6 mph - N/A   Mostly Cloudy
4:53 AM 42.1 °F 39.2 °F 27.0 °F 55% 30.18 in 10.0 mi ESE 4.6 mph - N/A   Overcast
5:53 AM 44.1 °F 42.5 °F 27.0 °F 51% 30.17 in 10.0 mi SE 3.5 mph - N/A   Overcast
6:53 AM 45.0 °F 43.5 °F 28.0 °F 52% 30.18 in 10.0 mi South 3.5 mph - N/A   Overcast
7:53 AM 46.0 °F 44.8 °F 34.0 °F 63% 30.18 in 8.0 mi West 3.5 mph - 0.00 in Rain Light Rain
8:53 AM 44.1 °F 40.1 °F 37.0 °F 76% 30.18 in 7.0 mi East 6.9 mph - 0.03 in Rain Light Rain
9:53 AM 46.0 °F 43.9 °F 37.9 °F 73% 30.16 in 7.0 mi SE 4.6 mph - 0.01 in Rain Light Rain
10:53 AM 46.9 °F - 41.0 °F 80% 30.15 in 8.0 mi ESE 4.6 mph - 0.02 in Rain Light Rain
11:53 AM 48.9 °F - 42.1 °F 77% 30.13 in 10.0 mi SE 6.9 mph - 0.00 in Rain Light Rain
12:53 PM 51.1 °F - 43.0 °F 74% 30.11 in 10.0 mi ESE 4.6 mph - 0.00 in   Overcast
1:53 PM 51.1 °F - 43.0 °F 74% 30.09 in 4.0 mi Calm Calm - 0.01 in Rain Light Rain
2:03 PM 51.8 °F - 44.6 °F 76% 30.09 in 4.0 mi Calm Calm - 0.01 in Rain Light Rain
2:48 PM 50.0 °F - 44.6 °F 82% 30.08 in 5.0 mi WSW 10.4 mph - 0.05 in Rain Light Rain
2:53 PM 51.1 °F - 46.0 °F 83% 30.08 in 5.0 mi West 6.9 mph - 0.05 in Rain Light Rain
3:53 PM 50.0 °F - 46.0 °F 86% 30.06 in 6.0 mi WNW 6.9 mph - 0.03 in Rain Light Rain
4:00 PM 50.0 °F - 46.4 °F 87% 30.05 in 6.0 mi West 4.6 mph - 0.01 in Rain Light Rain
4:46 PM 50.0 °F - 44.6 °F 82% 30.04 in 8.0 mi West 10.4 mph - 0.03 in Rain Light Rain
4:53 PM 50.0 °F - 45.0 °F 83% 30.04 in 9.0 mi WSW 11.5 mph - 0.03 in Rain Light Rain
5:53 PM 52.0 °F - 44.1 °F 74% 30.02 in 10.0 mi WNW 5.8 mph - 0.00 in   Mostly Cloudy
6:53 PM 52.0 °F - 44.1 °F 74% 30.01 in 10.0 mi North 4.6 mph - N/A   Scattered Clouds
7:53 PM 51.1 °F - 45.0 °F 80% 30.00 in 10.0 mi Calm Calm - N/A   Mostly Cloudy
8:53 PM 46.9 °F - 43.0 °F 86% 30.01 in 7.0 mi Variable 4.6 mph - 0.09 in Rain Light Rain
9:53 PM 46.9 °F - 44.1 °F 90% 30.05 in 10.0 mi NNW 3.5 mph - 0.01 in   Overcast
10:53 PM 46.9 °F - 44.1 °F 90% 30.06 in 10.0 mi SSW 3.5 mph - 0.00 in Rain Light Rain
11:53 PM 46.9 °F - 44.1 °F 90% 30.06 in 9.0 mi West 5.8 mph - 0.01 in Rain Light Rain